Location: Newark
(49.3000°N, 9.4667°E)
Time: 04:50:02
(UTC+00:00)

Tiros 1 - Pass Details

Date: 30 May 2019
Orbit: 631 x 664 km, 48.4° (Epoch: 25 June)

Event Time Altitude Azimuth Distance (km) Brightness Sun altitude
Rises 09:49:54 0° 263° (W) 2,921 10.3 57.2°
Reaches altitude 10° 09:52:12 10° 263° (W) 2,017 9.6 57.5°
Maximum altitude 09:56:51 81° 177° (S) 651 8.7 57.9°
Drops below altitude 10° 10:01:33 10° 90° (E) 2,036 10.1 58.4°
Sets 10:03:53 0° 90° (E) 2,952 10.8 58.6°
